sat.trackr.live / text

‹ back to catalog

STARLINK-6305

NORAD 56394 · 2023-061W

PAYLOAD ACTIVE UNKNOWN

§ Identity

Operator
Country
US
Launch date
2023-05-04
Launch site
AFETR
Launch vehicle
Mass (kg)
RCS (m²)

Purposes: comms

External: N2YO · Heavens-Above · Gunter

§ Orbital elements

Epoch: 2026-05-25T05:24:45.741024Z

Period
94.27 min
Inclination
43.0027°
Eccentricity
0.0001185
Mean motion
15.27572628 rev/d
Perigee alt
482.3 km
Apogee alt
483.9 km
Semi-major
6,861.2 km
B*
3.2210e-5
RAAN
114.4829°
Arg perigee
266.5545°
Mean anomaly
93.5172°
Rev number
16,858

§ Raw data

STARLINK-63051 56394U 23061W   26145.22552941  .00000624  00000+0  32210-4 0  99902 56394  43.0027 114.4829 0001185 266.5545  93.5172 15.27572628168582

JSON: /api/v1/satellites/56394 · /tle

For live sub-satellite position, see the globe view (requires WebGL).

§ Visibility from observer

Set your observer location to see the next 7 days of passes ≥ 10°. The values pass through the URL so the page stays shareable.

No JS? Fill the form by hand. The geolocation button needs JavaScript.